Wind_Speed
49 45 43 43 44 43 41 41 42 39 35 34 34 34 36 39 43 43 45 45 40 40 41 37 36 35 34 36 34 28 24 24 27 26 20 18 21 19 17 14 14 13 12 13 13 12 11 12 13 14 14 15 16 18 20 20 20 21 22 22 22 22 21
50 46 43 43 44 44 43 43 41 37 34 35 35 35 36 40 43 43 43 41 38 41 39 34 37 38 36 39 38 33 29 27 28 27 23 19 19 20 18 16 16 14 12 13 13 13 13 13 14 15 15 16 18 19 21 20 20 21 22 22 23 23 22
51 47 45 44 45 45 43 42 40 37 38 39 38 39 38 39 40 40 39 37 38 39 32 28 34 35 36 40 40 37 35 32 30 28 24 20 19 19 19 19 20 16 14 13 13 14 14 14 15 16 15 17 18 19 20 20 19 21 22 22 22 22 22
52 46 46 47 48 47 45 43 42 40 40 40 39 39 37 37 38 37 35 33 33 31 25 24 28 29 31 37 39 36 33 33 32 29 24 20 20 21 22 23 21 17 15 13 14 16 15 14 15 15 15 16 16 17 18 19 19 19 20 20 20 20 20
54 48 48 50 48 47 47 48 47 45 43 42 40 39 39 38 37 36 34 32 28 24 22 21 22 23 25 29 31 28 26 28 30 27 22 19 20 22 25 25 22 18 16 15 16 17 17 16 15 14 15 16 16 16 16 17 18 17 17 17 17 17 17
58 54 52 51 48 47 48 48 49 47 45 44 42 43 42 39 38 36 33 30 24 21 22 21 18 18 21 24 26 25 23 23 25 22 20 20 21 24 26 25 22 19 17 17 19 20 19 17 16 14 14 15 16 15 16 16 17 16 17 17 16 17 17
58 56 55 52 47 44 45 45 46 45 45 45 45 45 43 40 39 35 30 28 23 19 22 23 20 17 19 23 25 24 22 21 21 20 21 23 23 25 26 24 22 20 18 19 22 22 19 17 16 15 14 14 15 15 16 17 16 16 17 17 18 18 18
56 56 57 56 48 42 42 44 43 43 45 45 44 43 39 37 37 33 31 30 23 18 21 23 21 19 19 21 23 22 22 20 17 18 21 24 24 25 26 24 21 20 20 22 24 22 19 17 15 15 14 14 15 16 17 17 17 17 17 17 18 18 19
52 53 55 55 50 43 41 43 43 43 43 44 44 41 38 37 36 32 32 33 24 19 21 19 18 19 19 21 23 23 23 20 16 16 18 21 23 25 26 25 23 22 23 24 22 20 17 15 14 14 14 15 15 16 17 18 19 19 18 17 17 18 20
52 53 54 53 50 45 42 41 43 43 43 45 44 41 40 39 37 33 35 34 25 22 22 17 15 19 20 22 23 22 21 18 15 16 18 20 23 26 27 27 25 23 23 23 20 18 17 15 14 13 15 16 16 17 19 20 20 19 18 17 17 18 19
56 55 55 54 52 50 47 44 41 42 44 45 44 44 44 41 37 35 35 32 26 24 24 18 15 18 21 21 22 20 18 16 14 16 19 21 23 26 27 27 25 23 23 22 19 18 18 17 15 15 16 17 18 18 20 20 20 20 18 18 17 17 17
59 56 55 54 53 52 51 48 43 41 43 46 45 46 44 40 38 37 34 30 27 26 25 21 19 20 21 21 21 18 15 13 12 15 19 22 24 25 25 25 25 23 23 23 21 21 20 18 17 16 16 18 18 18 19 19 19 20 19 18 18 17 17
60 57 54 53 53 53 52 50 46 42 42 47 47 45 42 40 39 37 33 29 28 28 26 25 24 23 23 23 22 19 16 15 12 14 19 22 22 22 22 23 23 23 23 25 24 23 22 20 19 17 16 16 16 16 16 17 19 20 20 20 20 19 17
61 59 55 53 55 54 52 52 48 43 42 46 47 43 40 39 37 34 31 29 28 30 29 27 27 27 26 26 26 25 22 19 15 14 19 21 20 19 20 22 22 23 25 27 26 23 22 21 19 17 15 13 12 11 11 13 16 18 19 19 20 19 19
63 60 55 53 55 55 53 52 49 44 41 42 46 45 41 40 38 34 30 27 25 28 32 31 30 30 30 30 31 30 27 22 16 15 17 20 19 17 19 21 22 24 26 27 25 22 21 20 19 16 14 13 11 10 10 11 14 16 17 16 17 17 18
65 60 54 51 53 53 52 51 48 44 38 37 43 47 43 39 36 32 30 27 22 22 30 34 35 34 33 34 35 34 30 23 18 15 16 19 19 17 17 20 21 23 26 26 24 21 20 19 18 16 15 14 13 11 11 11 13 14 15 14 14 15 16
67 61 53 48 48 50 52 52 49 45 40 35 39 46 44 38 33 28 27 27 22 20 26 32 36 38 38 39 39 37 30 22 19 16 15 17 18 17 17 17 19 22 24 24 23 22 21 19 18 17 17 16 15 14 14 14 14 13 13 14 13 13 13
69 62 53 47 47 49 53 56 52 48 45 38 38 48 50 42 34 27 23 24 24 23 26 29 33 37 40 41 40 35 29 24 21 17 15 16 17 17 17 16 18 22 23 23 23 24 23 21 20 19 20 19 19 19 19 19 17 15 15 15 14 13 11
72 63 54 49 49 50 54 57 55 52 50 43 40 48 52 45 36 30 26 27 28 28 28 30 32 36 38 38 37 33 28 25 22 18 15 15 15 16 18 18 19 21 24 24 25 25 24 24 24 23 23 23 23 23 23 22 20 19 18 18 17 15 13
75 67 58 53 52 52 54 56 55 53 51 47 42 45 49 47 41 35 31 29 31 31 30 30 31 34 37 36 35 33 29 27 24 20 16 14 13 14 17 19 19 20 21 23 25 26 26 26 25 25 24 25 25 25 25 24 23 21 20 19 18 17 16
77 71 62 54 51 53 54 55 56 55 52 50 47 45 48 50 46 39 35 33 35 35 32 29 28 32 35 34 34 33 30 28 26 23 19 17 16 16 18 20 21 20 21 23 25 27 28 27 26 25 26 26 26 26 26 25 23 22 21 19 18 17 17
78 75 65 55 51 54 57 57 58 56 52 52 53 49 48 51 49 42 37 39 41 38 33 30 31 34 35 35 34 34 33 30 27 24 23 21 19 19 19 21 22 22 21 22 22 23 25 27 28 28 27 27 27 26 26 24 23 22 20 18 17 16 16
78 76 69 61 55 56 58 57 57 56 52 53 56 51 47 52 53 46 41 43 43 40 35 31 32 34 36 37 37 35 33 31 27 26 26 25 22 21 20 20 21 22 22 21 20 20 22 26 28 29 28 27 27 26 25 24 23 22 20 18 17 17 17
77 77 72 66 58 54 56 55 55 55 54 55 57 54 50 53 56 51 46 46 47 46 42 38 37 37 37 39 39 37 35 31 29 29 29 28 25 23 21 21 21 21 21 21 21 21 22 24 26 27 26 26 26 26 26 25 24 22 21 20 20 19 19
76 75 73 71 62 53 53 53 53 56 58 58 58 56 53 55 57 55 51 49 49 51 49 46 44 43 41 40 40 40 39 35 32 31 31 28 26 24 23 22 22 21 20 20 20 21 22 23 24 25 25 24 24 24 25 24 23 22 23 23 23 22 20
73 72 72 73 67 56 51 50 53 58 60 59 59 57 55 56 59 58 55 52 51 51 51 50 49 47 45 44 42 41 41 40 35 33 32 31 28 27 25 23 23 23 21 19 19 19 21 23 25 25 26 25 24 24 23 21 21 23 25 25 24 22 21
70 68 69 74 73 62 51 47 51 60 62 60 60 59 57 59 61 61 59 56 53 52 52 53 52 50 47 45 44 43 42 42 39 36 35 34 32 30 28 25 24 23 21 19 19 19 20 22 24 25 26 27 27 26 25 24 24 26 26 25 24 23 22
69 62 63 71 77 70 56 45 47 57 61 61 61 60 58 60 64 64 62 61 57 54 53 53 53 52 50 48 47 46 44 43 41 39 37 35 33 32 31 28 26 25 23 20 19 20 20 21 22 23 24 25 27 28 28 29 30 29 28 27 27 26 25
73 64 61 67 75 76 65 50 44 50 59 63 63 61 60 62 66 66 65 64 62 57 56 55 53 51 51 50 49 47 46 45 43 40 39 37 34 32 31 30 28 27 25 22 19 19 20 21 21 21 21 22 24 25 28 30 32 31 31 31 30 30 29
77 70 64 67 73 78 74 60 48 48 57 64 64 62 62 65 67 67 66 66 65 63 61 59 56 53 52 51 51 49 48 47 46 43 40 39 37 35 33 31 29 28 28 25 22 21 21 22 22 22 22 22 22 23 25 28 29 30 31 31 30 31 31
74 71 67 68 73 78 78 70 58 50 54 62 64 63 65 68 67 67 67 66 65 64 63 62 59 56 54 52 52 51 49 48 47 44 40 39 39 38 35 34 33 33 32 31 28 25 24 23 23 24 23 23 23 24 25 26 27 27 28 28 28 29 30
66 70 71 69 71 76 77 73 65 54 52 60 64 64 67 71 70 68 67 68 67 64 62 62 60 58 56 54 53 52 50 49 47 42 38 39 41 41 40 39 38 38 38 36 34 31 28 25 25 26 25 24 24 24 25 26 27 27 27 27 27 28 29
57 64 71 72 72 73 73 72 70 62 54 58 63 65 68 72 74 72 67 67 69 66 62 61 61 59 58 56 54 53 51 50 46 40 37 39 43 43 42 42 42 42 41 40 38 36 32 29 28 27 27 26 25 25 25 26 27 27 27 27 28 28 28
52 56 67 76 78 75 70 68 71 70 62 56 57 63 70 74 75 75 70 66 68 67 63 61 61 61 60 58 56 55 54 51 46 40 38 39 41 40 39 40 41 42 42 41 40 39 36 33 31 29 29 28 27 26 26 27 27 28 28 28 28 28 28
54 54 65 77 83 82 75 69 68 71 70 62 53 54 65 73 75 74 71 68 67 66 63 61 61 61 60 59 57 55 55 52 46 41 40 39 38 37 38 38 39 41 42 42 41 40 38 36 34 32 31 31 30 29 29 29 29 29 29 29 29 28 28
58 54 62 75 84 86 82 74 68 67 69 69 62 54 55 64 70 71 70 67 67 66 64 62 62 61 61 60 58 56 55 52 47 44 44 42 39 39 40 40 40 41 42 42 41 40 39 38 36 34 33 33 32 32 31 30 30 30 30 30 30 29 29
65 58 60 70 81 87 86 79 73 68 64 65 67 63 56 55 60 67 69 68 66 66 64 62 62 62 62 62 61 58 56 53 49 48 47 46 43 42 42 41 40 41 41 41 40 40 40 40 38 37 36 35 35 34 34 32 31 31 31 31 31 31 31
Wind_Direction
214 213 215 216 216 215 213 214 218 220 221 225 225 225 227 227 229 228 222 225 234 234 235 235 226 224 232 237 241 241 234 233 239 245 240 219 214 214 214 229 243 246 248 251 251 249 244 237 225 211 205 208 211 208 206 207 205 203 203 200 198 196 193
213 212 213 216 217 216 215 215 217 218 218 220 221 222 224 225 228 230 228 227 232 233 234 235 230 229 233 238 245 248 243 241 243 247 249 238 229 225 222 233 243 240 236 241 244 242 237 233 225 215 208 208 210 209 208 210 208 206 206 204 203 200 193
209 211 212 213 214 215 216 217 217 216 217 218 218 219 221 224 227 230 230 229 230 233 234 233 232 234 234 236 243 247 247 246 245 247 248 242 234 230 223 224 232 230 225 232 245 243 236 233 227 219 211 208 209 210 212 214 212 210 210 209 209 206 198
205 207 210 211 211 212 212 214 216 216 218 221 221 222 223 226 229 231 232 229 227 228 229 228 230 232 232 234 240 245 247 246 243 242 242 235 229 223 214 215 222 221 219 232 248 244 234 230 226 218 212 210 210 211 215 219 219 215 214 213 213 212 205
203 202 207 208 209 211 211 213 214 212 214 217 220 224 225 228 231 232 232 229 224 223 226 227 229 228 226 228 233 237 239 239 237 235 230 221 217 213 208 210 213 213 222 238 245 238 229 223 216 209 210 211 211 211 215 221 223 219 215 213 212 212 209
204 202 205 205 207 214 215 216 216 213 212 214 216 220 222 225 231 233 233 231 224 223 228 228 225 223 221 223 227 227 228 232 233 227 211 203 206 205 203 205 208 214 227 236 234 229 225 219 210 204 209 212 211 212 216 220 221 217 212 208 205 205 204
206 203 204 203 205 214 219 221 221 218 216 216 217 219 220 222 227 231 233 232 224 222 231 226 215 211 213 218 222 224 227 230 229 218 200 195 201 200 198 202 209 216 224 225 223 222 222 217 207 202 206 210 211 211 213 216 216 212 208 204 202 200 198
206 204 204 203 201 207 218 221 222 221 221 220 221 223 224 225 227 228 229 228 219 218 233 229 216 208 205 209 215 219 226 229 223 212 198 195 200 198 196 201 207 211 214 214 214 216 217 212 204 201 202 205 208 208 208 209 208 206 205 204 203 199 195
202 201 201 203 199 200 211 217 218 219 221 223 223 223 224 225 225 224 226 227 217 214 227 226 217 213 204 206 212 215 224 229 221 209 199 196 200 197 194 197 202 206 207 207 208 211 210 203 196 197 198 200 204 205 205 205 204 204 204 203 203 201 198
195 196 196 199 198 196 202 210 215 217 219 222 222 221 222 222 220 219 222 223 214 212 220 212 206 215 212 211 215 214 219 228 224 214 203 197 199 199 197 199 202 205 205 203 204 202 196 190 187 189 193 194 198 201 204 204 204 203 202 201 202 202 202
194 195 195 198 199 197 198 203 209 213 217 220 222 222 223 223 221 219 220 220 210 206 213 201 191 212 219 219 219 214 214 223 223 215 204 197 199 201 200 200 202 205 203 201 199 193 186 182 182 186 190 191 192 196 202 206 206 204 201 200 201 203 204
192 192 192 196 199 198 199 200 202 206 211 217 220 222 222 222 223 220 219 219 207 198 205 201 194 209 220 224 224 214 209 218 220 210 203 200 201 203 202 199 201 206 204 199 197 193 188 182 181 186 190 190 190 191 196 202 204 203 200 200 201 203 205
187 187 188 193 197 198 199 200 200 199 203 211 218 221 221 220 221 219 220 222 208 193 199 206 204 210 218 226 231 225 218 221 220 209 205 204 204 203 198 194 200 205 199 194 194 195 191 183 181 185 186 186 185 184 188 195 198 199 198 198 199 200 202
183 183 186 191 195 198 199 201 200 196 196 205 213 218 220 220 219 218 221 226 213 195 196 205 209 213 218 227 233 234 233 230 224 215 210 208 207 202 189 183 192 199 192 188 192 196 192 187 183 183 180 176 172 170 174 183 190 194 195 195 197 197 199
181 181 184 190 195 198 200 201 201 197 193 199 206 211 216 218 218 218 217 221 217 201 197 204 211 214 218 226 233 236 236 233 229 224 213 208 207 200 182 174 183 193 189 187 191 192 189 187 185 182 179 175 170 169 171 173 178 183 184 185 188 190 195
180 179 182 189 194 198 200 202 204 202 197 196 201 205 210 214 215 216 212 208 209 206 203 207 214 216 220 227 233 236 235 231 231 229 212 204 203 195 181 173 177 187 188 187 189 188 183 182 182 181 182 182 179 180 180 177 176 176 173 172 176 182 191
181 179 180 187 192 195 200 201 203 205 202 199 199 199 203 206 204 208 210 201 198 207 209 210 213 215 219 226 231 235 234 228 227 224 210 201 197 190 184 177 171 176 182 186 188 189 187 183 182 182 183 184 184 187 189 187 184 179 172 169 171 178 187
182 179 179 186 188 191 198 199 201 204 204 202 199 196 197 197 191 192 199 197 199 209 214 216 217 216 219 224 228 232 233 226 219 214 204 196 191 188 188 185 176 172 174 180 185 188 188 187 189 191 188 186 188 192 193 193 191 187 180 175 174 178 186
184 179 180 185 184 186 195 197 198 202 200 198 198 196 194 191 185 182 185 195 207 211 209 214 221 223 223 223 225 228 227 221 215 210 200 190 186 187 190 192 189 180 175 177 181 187 189 191 194 194 190 189 193 195 194 194 194 192 188 184 181 183 190
185 181 181 184 182 185 192 194 195 198 196 193 193 194 192 187 183 179 178 193 212 216 210 210 217 226 227 222 223 226 221 216 215 212 203 195 191 192 195 198 198 192 185 183 185 190 193 194 196 194 191 192 195 195 195 194 194 195 194 191 190 190 194
189 185 182 182 181 183 186 188 190 194 194 190 188 190 192 188 183 177 176 191 209 216 217 218 221 229 229 222 222 226 220 215 216 212 207 206 204 202 201 202 203 201 196 191 190 193 196 198 198 197 196 196 196 196 197 195 194 196 196 196 196 196 198
193 189 183 182 182 181 179 181 186 190 193 190 185 186 191 189 182 176 181 196 207 208 210 217 222 228 230 225 222 225 223 218 215 213 212 212 211 208 202 201 203 201 195 190 189 192 196 199 202 202 201 200 198 199 199 198 198 199 198 198 200 201 203
197 193 187 185 185 180 175 176 182 187 191 191 184 183 190 191 183 179 186 198 204 201 198 203 212 219 224 225 223 223 225 221 213 212 214 213 212 211 205 202 202 199 192 189 192 194 194 197 201 204 204 203 200 199 199 200 202 203 202 205 208 209 209
199 196 192 191 189 180 174 174 178 182 187 189 185 184 189 190 185 184 189 196 200 200 196 195 200 206 213 222 224 223 225 222 214 210 213 213 211 211 208 204 203 201 196 193 195 195 192 192 196 200 201 202 201 199 200 202 203 203 206 212 216 216 214
200 200 197 196 192 180 173 174 176 179 183 187 188 188 189 188 187 188 190 194 199 203 201 198 198 199 204 213 220 223 225 224 217 211 209 208 209 212 211 206 205 206 204 202 200 198 194 192 192 193 194 196 198 200 202 201 200 203 209 215 217 216 215
201 203 201 198 193 183 174 174 177 179 182 185 188 189 188 188 188 190 192 195 200 204 205 203 200 201 204 209 213 219 224 226 222 215 210 208 210 214 214 210 208 208 205 203 201 199 196 194 192 191 192 191 194 199 200 198 200 206 212 214 214 215 215
201 205 205 201 198 190 178 173 176 180 182 184 186 188 189 189 190 191 194 198 202 204 206 206 205 206 209 212 213 215 220 224 224 220 216 215 214 216 216 212 210 209 205 201 198 197 199 200 198 196 195 194 195 196 196 197 203 208 211 211 211 213 214
199 203 205 204 203 198 186 175 175 179 181 182 184 187 189 190 190 192 196 200 204 205 207 209 210 211 212 215 218 218 219 222 225 224 223 221 219 218 217 213 210 208 205 201 200 200 201 204 205 204 202 201 201 199 197 199 203 206 209 210 210 211 213
198 200 203 205 206 203 197 186 178 178 181 182 182 184 188 190 191 193 196 201 204 206 209 212 214 213 212 215 219 221 222 223 226 227 227 226 224 223 222 219 214 211 208 205 206 207 207 208 210 210 207 206 206 206 205 205 205 207 209 211 211 212 214
198 200 204 207 208 206 203 199 190 181 181 183 182 182 185 189 191 193 196 200 204 207 210 214 217 217 215 215 217 220 222 224 226 227 226 227 227 227 227 226 223 219 217 215 215 214 213 214 214 213 211 208 206 207 212 214 213 213 214 215 215 215 216
196 200 204 208 209 207 205 205 202 189 182 183 183 181 183 187 191 194 196 199 202 206 210 213 217 218 218 218 218 219 220 221 223 224 224 225 225 225 226 228 228 226 226 225 224 221 218 218 219 218 216 212 208 206 210 215 218 219 221 222 223 222 223
194 200 204 207 210 209 209 209 208 199 187 184 184 182 182 185 189 193 196 197 199 203 207 210 213 216 218 219 220 219 219 219 219 220 222 222 221 220 221 223 225 226 227 227 227 225 222 220 221 222 220 218 214 212 212 215 218 221 222 224 226 227 228
194 199 204 207 209 210 211 212 211 207 197 189 187 185 182 183 188 193 194 194 196 199 202 206 210 214 216 218 219 220 221 222 220 220 222 221 218 216 217 218 221 224 226 227 227 226 225 222 220 222 223 222 220 219 218 219 221 223 224 225 226 228 230
199 200 204 209 210 210 211 213 213 211 205 196 190 188 185 183 186 191 193 193 194 197 199 203 207 211 214 216 218 221 224 226 223 220 219 217 215 215 215 216 219 223 226 227 227 227 227 224 220 219 222 225 225 225 224 225 226 227 228 228 228 229 229
207 205 204 208 212 212 212 213 213 213 211 205 196 190 188 187 187 190 193 194 194 195 197 200 204 209 212 215 217 220 224 227 225 218 216 218 222 223 222 221 222 224 226 228 228 228 229 228 224 221 222 225 228 229 229 229 230 231 232 233 233 233 232
212 210 206 207 211 214 214 215 215 215 215 213 208 201 196 192 191 191 193 194 195 195 196 198 203 207 211 215 218 220 223 226 225 220 220 226 232 234 232 230 229 228 228 229 229 230 231 231 230 228 227 227 229 231 232 231 231 232 234 236 236 236 236
212 214 211 208 211 214 215 216 216 216 216 216 215 213 210 204 199 195 193 193 195 197 197 199 202 207 212 216 219 222 224 226 226 225 227 234 240 241 240 238 236 234 233 231 231 231 232 232 234 234 233 231 231 233 234 234 233 233 234 236 237 238 239
Height
5787 5793 5797 5800 5802 5806 5810 5812 5814 5818 5823 5825 5827 5830 5833 5835 5835 5836 5839 5839 5842 5846 5847 5851 5855 5857 5858 5859 5860 5862 5865 5867 5870 5872 5875 5878 5879 5880 5882 5883 5885 5887 5888 5889 5891 5893 5894 5895 5896 5896 5898 5900 5902 5904 5906 5908 5910 5911 5912 5914 5916 5918 5919
5783 5789 5793 5795 5797 5802 5805 5808 5813 5818 5821 5821 5823 5826 5827 5829 5829 5831 5834 5838 5841 5842 5844 5848 5852 5854 5855 5855 5857 5860 5862 5864 5866 5869 5873 5876 5877 5879 5880 5882 5884 5885 5886 5887 5889 5891 5892 5893 5894 5895 5896 5898 5900 5902 5904 5907 5909 5911 5912 5914 5916 5917 5918
5777 5783 5786 5788 5791 5796 5801 5807 5811 5813 5814 5815 5817 5819 5821 5823 5825 5827 5831 5835 5837 5838 5841 5847 5850 5851 5853 5853 5854 5856 5858 5861 5864 5866 5870 5873 5875 5876 5877 5879 5881 5883 5884 5886 5887 5889 5890 5891 5892 5893 5895 5896 5899 5901 5903 5906 5908 5910 5911 5913 5915 5917 5918
5770 5773 5775 5780 5785 5791 5797 5801 5804 5806 5809 5812 5814 5816 5819 5820 5822 5824 5828 5831 5833 5836 5841 5845 5847 5849 5851 5851 5851 5853 5856 5858 5861 5864 5867 5869 5872 5873 5874 5877 5879 5881 5882 5884 5886 5887 5888 5890 5891 5893 5894 5896 5898 5900 5903 5905 5907 5908 5910 5912 5915 5917 5919
5760 5763 5768 5776 5783 5787 5790 5792 5794 5799 5803 5807 5811 5814 5816 5818 5819 5822 5825 5827 5830 5836 5840 5842 5843 5845 5847 5848 5849 5852 5854 5856 5858 5862 5865 5867 5869 5871 5872 5875 5877 5879 5880 5882 5884 5885 5886 5888 5889 5891 5893 5895 5897 5899 5902 5904 5905 5908 5910 5912 5914 5916 5918
5751 5758 5766 5776 5783 5785 5787 5788 5790 5795 5799 5802 5805 5807 5810 5814 5816 5819 5823 5826 5830 5835 5837 5838 5840 5842 5844 5846 5847 5849 5852 5854 5856 5859 5862 5864 5866 5868 5870 5872 5874 5876 5878 5880 5881 5883 5884 5886 5888 5890 5892 5894 5896 5898 5900 5902 5904 5907 5908 5910 5912 5915 5917
5749 5758 5765 5771 5776 5781 5785 5786 5789 5794 5796 5798 5801 5803 5807 5811 5814 5817 5822 5823 5827 5832 5833 5835 5838 5840 5841 5842 5843 5845 5848 5851 5853 5856 5859 5861 5864 5866 5868 5870 5872 5874 5876 5878 5879 5880 5883 5885 5887 5888 5890 5892 5895 5897 5899 5901 5903 5905 5907 5909 5911 5913 5915
5749 5756 5761 5762 5767 5773 5778 5781 5785 5790 5793 5797 5801 5804 5808 5811 5813 5817 5819 5819 5824 5829 5830 5831 5835 5837 5838 5839 5839 5842 5845 5848 5851 5854 5856 5858 5861 5863 5865 5867 5869 5871 5873 5875 5877 5879 5881 5884 5885 5887 5889 5891 5893 5895 5897 5900 5902 5904 5906 5908 5910 5912 5914
5745 5751 5756 5758 5760 5765 5770 5776 5780 5785 5789 5793 5797 5801 5804 5806 5809 5814 5815 5816 5822 5827 5826 5828 5832 5833 5835 5836 5837 5840 5842 5845 5849 5851 5854 5856 5858 5861 5862 5864 5866 5868 5870 5873 5875 5878 5880 5882 5884 5885 5887 5889 5891 5894 5896 5898 5900 5902 5904 5906 5909 5911 5912
5736 5742 5748 5752 5755 5758 5763 5770 5776 5780 5784 5787 5792 5796 5798 5800 5805 5809 5811 5814 5821 5824 5824 5826 5830 5831 5832 5834 5835 5838 5840 5843 5846 5849 5851 5853 5855 5858 5860 5861 5863 5866 5868 5871 5874 5876 5878 5880 5882 5883 5885 5887 5890 5892 5894 5896 5898 5900 5903 5905 5907 5909 5912
5729 5736 5743 5747 5750 5753 5757 5763 5769 5776 5780 5783 5788 5791 5793 5798 5803 5806 5808 5813 5819 5821 5821 5824 5827 5829 5830 5832 5834 5836 5838 5841 5844 5846 5848 5850 5853 5855 5857 5859 5861 5864 5866 5870 5872 5875 5876 5878 5880 5882 5884 5886 5888 5890 5892 5894 5897 5899 5901 5903 5905 5908 5911
5725 5733 5739 5742 5746 5750 5754 5757 5763 5770 5775 5779 5783 5786 5790 5796 5800 5803 5807 5812 5816 5818 5819 5822 5825 5826 5828 5830 5831 5834 5837 5839 5841 5844 5846 5848 5850 5852 5854 5857 5859 5861 5865 5868 5871 5873 5875 5876 5878 5881 5882 5884 5886 5888 5890 5893 5895 5897 5899 5901 5904 5906 5909
5722 5729 5733 5736 5741 5747 5750 5754 5758 5764 5771 5775 5778 5782 5788 5793 5796 5801 5806 5809 5813 5816 5817 5819 5822 5823 5826 5827 5829 5832 5835 5837 5839 5842 5844 5845 5847 5849 5852 5854 5857 5860 5862 5866 5869 5871 5873 5875 5877 5879 5881 5883 5885 5887 5889 5891 5894 5896 5897 5899 5902 5904 5907
5719 5725 5729 5733 5738 5743 5747 5751 5755 5761 5766 5771 5776 5781 5786 5790 5794 5800 5804 5806 5811 5815 5816 5817 5819 5821 5823 5825 5826 5828 5831 5834 5837 5840 5842 5844 5845 5847 5850 5853 5855 5858 5860 5864 5867 5870 5871 5873 5876 5878 5880 5883 5884 5886 5888 5890 5892 5894 5896 5898 5900 5902 5904
5715 5721 5727 5732 5736 5741 5745 5750 5754 5759 5764 5769 5775 5780 5783 5788 5792 5796 5800 5803 5807 5812 5814 5816 5816 5818 5820 5822 5823 5825 5828 5832 5835 5837 5840 5842 5844 5846 5849 5851 5854 5856 5859 5862 5865 5868 5870 5872 5875 5877 5879 5882 5884 5885 5887 5889 5891 5893 5895 5897 5899 5900 5902
5710 5716 5723 5729 5734 5740 5746 5750 5754 5759 5764 5768 5772 5777 5782 5786 5790 5794 5797 5801 5804 5808 5811 5812 5814 5816 5818 5819 5820 5822 5826 5830 5833 5836 5838 5840 5843 5845 5848 5850 5853 5855 5858 5861 5863 5866 5869 5871 5874 5876 5878 5881 5883 5885 5887 5889 5890 5892 5894 5896 5898 5899 5900
5706 5712 5719 5726 5732 5739 5743 5746 5750 5756 5760 5764 5769 5775 5781 5783 5787 5791 5795 5800 5804 5806 5808 5809 5811 5813 5815 5816 5817 5819 5824 5828 5832 5834 5837 5839 5841 5844 5846 5849 5852 5854 5857 5860 5862 5865 5868 5870 5873 5875 5877 5880 5883 5885 5887 5888 5889 5891 5893 5895 5896 5898 5899
5701 5709 5717 5723 5729 5735 5737 5741 5746 5750 5754 5759 5764 5768 5771 5775 5782 5788 5794 5799 5802 5803 5805 5807 5808 5809 5811 5812 5814 5818 5822 5827 5830 5833 5835 5837 5839 5842 5844 5847 5850 5853 5856 5858 5860 5863 5866 5869 5871 5873 5876 5878 5881 5883 5885 5886 5888 5890 5892 5893 5895 5897 5898
5697 5706 5714 5718 5722 5726 5729 5735 5740 5743 5747 5754 5759 5763 5768 5775 5781 5786 5790 5795 5797 5799 5801 5803 5804 5805 5807 5810 5813 5816 5820 5824 5828 5831 5834 5836 5838 5840 5842 5845 5848 5851 5853 5856 5859 5861 5864 5866 5868 5871 5873 5876 5878 5881 5883 5885 5887 5889 5891 5892 5894 5895 5897
5694 5702 5708 5712 5716 5719 5724 5731 5735 5737 5742 5749 5755 5763 5769 5774 5777 5780 5785 5790 5792 5794 5796 5798 5799 5801 5804 5808 5811 5814 5818 5822 5825 5829 5832 5834 5836 5838 5840 5843 5846 5848 5851 5854 5857 5859 5861 5863 5865 5868 5871 5873 5875 5878 5880 5883 5885 5887 5889 5891 5892 5894 5895
5691 5696 5703 5710 5714 5716 5720 5727 5730 5733 5739 5745 5752 5760 5766 5769 5773 5778 5782 5786 5787 5789 5791 5794 5796 5798 5801 5806 5809 5811 5815 5819 5822 5826 5829 5831 5833 5836 5838 5840 5843 5845 5848 5850 5853 5855 5857 5860 5862 5865 5867 5870 5872 5875 5877 5880 5883 5885 5887 5889 5890 5892 5893
5685 5692 5701 5707 5709 5711 5716 5721 5725 5729 5736 5741 5747 5754 5760 5765 5771 5775 5778 5781 5783 5784 5787 5790 5793 5795 5799 5803 5806 5808 5811 5816 5819 5823 5825 5828 5831 5832 5834 5837 5839 5841 5843 5845 5848 5851 5853 5856 5858 5860 5863 5866 5868 5871 5874 5877 5879 5882 5884 5886 5888 5890 5891
5681 5688 5696 5701 5703 5707 5711 5714 5719 5727 5734 5739 5744 5749 5755 5761 5766 5770 5774 5777 5779 5782 5785 5788 5790 5793 5795 5799 5802 5804 5807 5812 5816 5819 5821 5824 5827 5829 5831 5833 5835 5837 5839 5842 5844 5846 5849 5851 5854 5856 5859 5862 5865 5867 5870 5873 5875 5878 5881 5883 5885 5886 5888
5678 5684 5691 5694 5698 5704 5707 5709 5715 5723 5730 5737 5742 5745 5749 5755 5762 5766 5770 5773 5775 5779 5783 5785 5787 5790 5792 5795 5799 5802 5804 5808 5812 5815 5818 5821 5824 5826 5828 5830 5832 5834 5836 5839 5841 5843 5846 5848 5851 5854 5856 5859 5862 5864 5866 5869 5871 5875 5877 5879 5881 5882 5884
5675 5680 5685 5689 5695 5701 5704 5706 5712 5718 5724 5731 5737 5739 5744 5751 5758 5762 5766 5769 5772 5775 5778 5781 5784 5786 5788 5792 5796 5799 5802 5805 5809 5812 5815 5819 5821 5823 5825 5827 5829 5831 5834 5836 5838 5841 5843 5846 5848 5851 5853 5856 5859 5861 5863 5866 5869 5871 5873 5874 5876 5878 5880
5671 5675 5679 5685 5692 5699 5701 5703 5708 5714 5719 5724 5731 5736 5741 5747 5753 5757 5762 5765 5768 5771 5774 5777 5780 5782 5784 5788 5793 5797 5800 5802 5806 5809 5813 5816 5818 5820 5823 5825 5827 5829 5832 5834 5836 5839 5841 5843 5845 5847 5849 5852 5855 5857 5860 5864 5866 5867 5868 5870 5873 5875 5877
5668 5671 5676 5682 5688 5693 5696 5699 5703 5709 5713 5719 5726 5732 5737 5742 5748 5753 5757 5761 5764 5767 5770 5773 5776 5778 5781 5785 5789 5793 5796 5799 5802 5806 5809 5812 5815 5818 5821 5823 5826 5828 5830 5833 5835 5837 5839 5841 5843 5844 5846 5848 5851 5854 5857 5860 5861 5863 5865 5867 5870 5872 5874
5662 5666 5671 5675 5678 5683 5689 5694 5699 5704 5709 5715 5721 5727 5732 5737 5743 5748 5752 5756 5760 5764 5766 5769 5772 5775 5779 5782 5786 5789 5793 5796 5799 5803 5806 5809 5813 5815 5818 5821 5823 5826 5829 5831 5833 5835 5836 5838 5840 5842 5844 5846 5848 5851 5853 5855 5857 5859 5861 5864 5866 5868 5870
5657 5661 5664 5667 5670 5676 5684 5690 5695 5701 5706 5710 5716 5722 5727 5732 5737 5742 5746 5749 5754 5760 5763 5765 5768 5772 5776 5779 5783 5787 5791 5794 5797 5800 5803 5806 5810 5812 5815 5817 5820 5823 5826 5828 5830 5832 5834 5836 5838 5840 5842 5844 5846 5848 5850 5851 5853 5855 5857 5859 5861 5864 5866
5657 5660 5662 5664 5667 5672 5680 5686 5691 5697 5701 5706 5711 5717 5722 5727 5732 5736 5740 5744 5749 5754 5758 5761 5764 5768 5772 5775 5779 5784 5788 5791 5794 5797 5801 5804 5807 5809 5812 5814 5817 5820 5822 5824 5827 5829 5831 5833 5835 5837 5839 5842 5844 5846 5847 5849 5850 5852 5853 5855 5857 5859 5861
5654 5657 5660 5663 5665 5670 5677 5683 5687 5692 5696 5701 5706 5711 5717 5722 5727 5732 5736 5740 5745 5749 5752 5756 5761 5764 5768 5772 5775 5778 5783 5787 5790 5794 5798 5801 5803 5806 5808 5811 5814 5816 5818 5820 5823 5826 5828 5831 5833 5835 5837 5839 5841 5843 5845 5846 5848 5849 5851 5852 5854 5856 5858
5648 5653 5657 5660 5663 5669 5674 5678 5683 5688 5692 5696 5701 5706 5711 5717 5723 5728 5731 5734 5739 5743 5747 5752 5756 5760 5764 5768 5771 5774 5778 5781 5785 5790 5794 5797 5799 5801 5804 5806 5809 5811 5814 5816 5819 5822 5825 5827 5829 5832 5834 5836 5838 5840 5842 5844 5845 5846 5848 5849 5851 5852 5854
5643 5649 5653 5655 5659 5666 5670 5673 5678 5684 5688 5693 5698 5702 5707 5712 5718 5723 5726 5729 5733 5738 5742 5747 5752 5756 5760 5763 5767 5770 5773 5776 5781 5786 5789 5792 5794 5796 5799 5801 5804 5806 5809 5812 5815 5818 5821 5824 5826 5828 5830 5833 5835 5837 5839 5841 5842 5843 5845 5846 5848 5849 5850
5637 5641 5645 5649 5655 5661 5664 5668 5674 5681 5686 5690 5694 5697 5701 5705 5711 5716 5720 5723 5727 5732 5736 5742 5747 5751 5755 5758 5762 5766 5769 5773 5778 5783 5785 5788 5790 5792 5794 5797 5800 5802 5805 5808 5811 5813 5816 5819 5822 5825 5827 5829 5831 5833 5835 5837 5839 5840 5842 5843 5844 5846 5847
5631 5635 5640 5645 5650 5654 5658 5665 5671 5677 5682 5686 5690 5695 5698 5701 5705 5710 5714 5718 5721 5725 5731 5737 5742 5746 5750 5754 5758 5762 5765 5769 5774 5779 5782 5784 5787 5789 5792 5794 5796 5798 5801 5803 5807 5810 5812 5815 5818 5821 5823 5825 5827 5829 5831 5833 5835 5837 5838 5840 5841 5842 5844
5625 5631 5636 5641 5645 5650 5656 5664 5669 5674 5678 5682 5687 5692 5696 5700 5703 5706 5710 5713 5717 5721 5726 5732 5737 5742 5746 5750 5754 5758 5761 5765 5770 5774 5777 5779 5782 5785 5788 5790 5792 5795 5797 5800 5803 5806 5809 5811 5814 5817 5819 5821 5823 5825 5827 5829 5831 5833 5834 5836 5837 5839 5840
5626 5630 5634 5638 5642 5647 5654 5662 5667 5672 5677 5680 5684 5688 5693 5698 5702 5705 5707 5710 5714 5718 5723 5728 5733 5738 5742 5746 5750 5754 5757 5761 5765 5768 5771 5774 5777 5780 5783 5786 5788 5791 5793 5796 5799 5802 5805 5807 5810 5812 5815 5817 5819 5821 5823 5825 5827 5829 5830 5832 5833 5834 5836